Location: Banios
(43.0451°N, 0.2335°E)
Time: 19:48:36
(UTC+00:00)

NOAA 12 - Pass Details

Date: 25 January 2021
Orbit: 796 x 814 km, 98.5° (Epoch: 01 March)

Event Time Altitude Azimuth Distance (km) Brightness Sun altitude
Rises 06:48:18 0° 9° (N) 3,327 7.2 -6.3°
Reaches altitude 10° 06:50:40 10° 5° (N) 2,395 6.4 -5.9°
Maximum altitude 06:55:50 55° 289° (WNW) 970 4.2 -5.0°
Drops below altitude 10° 07:00:58 10° 213° (SSW) 2,390 6.5 -4.2°
Sets 07:03:20 0° 208° (SSW) 3,319 7.2 -3.8°
